Zurück zum Katalog

CZ-6A DEB

AktivSSO
NORAD 55901·DEBRIS·🇨🇳 China

Gestartet Nov 11, 2022 von Taiyuan Satellite Launch Center

Loading…

Nächste Überflüge (nächste 24 Stunden)

TLE

AktuellSource: Space-Track

Epoche: Sep 14, 2026, 09:55 UTC

1 55901U 22151AAZ 26257.41348971 -.00000145  00000-0 -63488-4 0  9995
2 55901  98.8805 240.5265 0080980 141.7478 218.9472 14.03390627190199

Verfolge CZ-6A DEB in Echtzeit mit AllMySat

Download on the App Store